TimeCST,TemperatureF,Dew PointF,Humidity,Sea Level PressureIn,VisibilityMPH,Wind Direction,Wind SpeedMPH,Gust SpeedMPH,PrecipitationIn,Events,Conditions,WindDirDegrees,DateUTC
12:53 AM,39.9,34.0,79,30.41,10.0,NNW,11.5,-,N/A,,Clear,340,2013-01-18 06:53:00
1:53 AM,39.0,34.0,82,30.42,9.0,North,8.1,-,N/A,,Clear,350,2013-01-18 07:53:00
2:53 AM,37.9,33.1,83,30.42,8.0,NNW,8.1,-,N/A,,Clear,340,2013-01-18 08:53:00
3:53 AM,37.9,33.1,83,30.43,7.0,North,9.2,-,N/A,,Clear,350,2013-01-18 09:53:00
4:53 AM,37.0,33.1,86,30.43,6.0,North,9.2,-,N/A,,Clear,350,2013-01-18 10:53:00
5:53 AM,37.0,33.1,86,30.45,10.0,North,9.2,-,N/A,,Clear,10,2013-01-18 11:53:00
6:53 AM,36.0,33.1,89,30.47,4.0,North,9.2,-,N/A,,Clear,10,2013-01-18 12:53:00
7:53 AM,37.0,33.1,86,30.49,8.0,NNE,10.4,-,N/A,,Clear,30,2013-01-18 13:53:00
8:53 AM,42.1,34.0,73,30.51,7.0,NNE,11.5,21.9,N/A,,Clear,30,2013-01-18 14:53:00
9:53 AM,46.0,34.0,63,30.52,9.0,NNE,13.8,-,N/A,,Clear,30,2013-01-18 15:53:00
10:53 AM,50.0,35.1,57,30.50,10.0,NE,8.1,-,N/A,,Clear,40,2013-01-18 16:53:00
11:53 AM,53.1,36.0,52,30.47,10.0,ENE,5.8,-,N/A,,Clear,60,2013-01-18 17:53:00
12:53 PM,57.0,37.0,47,30.43,10.0,North,5.8,-,N/A,,Clear,10,2013-01-18 18:53:00
1:53 PM,57.9,37.0,46,30.41,10.0,NE,6.9,-,N/A,,Clear,50,2013-01-18 19:53:00
2:53 PM,57.0,39.9,53,30.40,10.0,Calm,Calm,-,N/A,,Clear,0,2013-01-18 20:53:00
3:53 PM,55.0,39.9,57,30.40,10.0,SSE,5.8,-,N/A,,Clear,160,2013-01-18 21:53:00
4:53 PM,54.0,41.0,62,30.40,10.0,Calm,Calm,-,N/A,,Clear,0,2013-01-18 22:53:00
5:53 PM,48.9,42.1,77,30.42,10.0,Calm,Calm,-,N/A,,Clear,0,2013-01-18 23:53:00
6:53 PM,45.0,41.0,86,30.42,9.0,Calm,Calm,-,N/A,,Clear,0,2013-01-19 00:53:00
7:53 PM,42.1,39.9,92,30.42,8.0,Calm,Calm,-,N/A,,Clear,0,2013-01-19 01:53:00
8:53 PM,41.0,39.0,93,30.42,10.0,Calm,Calm,-,N/A,,Clear,0,2013-01-19 02:53:00
9:53 PM,37.9,37.0,97,30.41,6.0,Calm,Calm,-,N/A,,Clear,0,2013-01-19 03:53:00
10:53 PM,37.0,35.1,93,30.40,5.0,Calm,Calm,-,N/A,,Clear,0,2013-01-19 04:53:00
11:53 PM,36.0,35.1,97,30.39,8.0,NW,3.5,-,N/A,,Clear,320,2013-01-19 05:53:00